Starlink 2330

operational
NORAD ID: 47874 Int'l Des: 2021-021 Owner: SPXS Country: US Constellation: starlink
LEOCIRCULARSTARLINK_TYPE

关于 Starlink 2330

正在加载描述...

实时位置

正在加载3D地球...

即将过境

高度历史

Altitude vs Time

uPlot chart will show altitude changes over time

两行轨道根数

1 47874U 21021Q 25257.34473225 .00002817 00000-0 20789-3 0 9994
2 47874 53.0542 288.2702 0001339 75.4516 284.6621 15.06409824250380
Epoch: Sep 14, 2025 • Age: 27 hours

当前状态

高度 565.5 km
速度 7.58 km/s
星下点 -50.71°S, 57.38°E
发射日期 Mar 14, 2021
运行时间 4.5 years
类型 internet

技术详情

分类 Payload
质量 260.00 kg
干质量 248.00 kg
总质量 260.00 kg
长度 0.20 m
直径 2.80 m
跨度 9.00 m
形状 Box + pan
制造商 SPXS
平台类型 Starlink
阶段状态 In Orbit
所有者/国家 SPXS/US

大型星座

Loading constellations...